Regional Weather Roundup
Issued by NWS Green Bay, WI

Home | Current Version | Previous Version | Text Only | Print | Product List | Glossary On
Versions: 1 2 3 4 5 6 7 8 9 10 11 12 13 14 15 16 17 18 19 20 21 22 23 24 25 26 27 28 29 30 31 32 33 34 35 36 37 38 39 40 41 42 43 44 45 46 47 48 49 50
302
ASUS43 KGRB 241100
RWRGRB

NORTH-CENTRAL AND NORTHEAST WISCONSIN REGIONAL WEATHER ROUNDUP
NATIONAL WEATHER SERVICE GREEN BAY WI
600 AM CDT MON APR 24 2017

WIZ005-009-010>012-018-019-241200-
NORTH CENTRAL WISCONSIN

CITY           SKY/WX    TMP DP  RH WIND       PRES   REMARKS
IRONWOOD       CLOUDY    33  18  53 E9        29.96F
MANITOWISH WTR NOT AVBL
ARBOR VITAE    NOT AVBL
EAGLE RIVER    NOT AVBL
LAND O LAKES   NOT AVBL
RHINELANDER    CLOUDY    33  23  66 SE10      29.98F
PHILLIPS       CLOUDY    32  27  80 SE7       29.94F
ANTIGO         NOT AVBL
TOMAHAWK       NOT AVBL
MERRILL        NOT AVBL
$$

WIZ013-073-241200-
NORTHEAST WISCONSIN

CITY           SKY/WX    TMP DP  RH WIND       PRES   REMARKS
IRON MOUNTAIN  CLOUDY    29  21  72 E5        30.04S
MARINETTE      PTCLDY    35  31  85 E9        30.06F
$$

WIZ017-030-035>037-045-241200-
CENTRAL WISCONSIN

CITY           SKY/WX    TMP DP  RH WIND       PRES   REMARKS
MEDFORD        NOT AVBL
WAUSAU         CLEAR     31  26  82 E9        29.98S
MOSINEE        MOCLDY    32  28  86 E6        29.99F
MARSHFIELD     CLOUDY    33  28  81 SE9       29.95F
WISC RAPIDS    PTCLDY    33  28  81 E6        29.99F
STEVENS POINT  NOT AVBL
WAUPACA        NOT AVBL
SHAWANO        PTCLDY    35  30  81 NE6       30.04S
CLINTONVILLE   PTCLDY    32  30  93 CALM      30.03S
WAUTOMA        CLOUDY    33  29  85 NE3       30.02R
$$

WIZ038-039-048-051-241200-
FOX VALLEY

CITY           SKY/WX    TMP DP  RH WIND       PRES   REMARKS
NWS GREEN BAY  CLEAR     35  32  88 NE5       30.03F
APPLETON       PTCLDY    36  27  69 NE5       30.00S
OSHKOSH        PTCLDY    38  32  79 SE6       30.01S
FOND DU LAC    PTCLDY    36  28  73 E5        30.01F
$$

WIZ022-050-052-241200-
EAST CENTRAL WISCONSIN

CITY           SKY/WX    TMP DP  RH WIND       PRES   REMARKS
EPHRAIM        NOT AVBL
WASHINGTON ISL NOT AVBL
STURGEON BAY   CLOUDY    35  31  85 VRB5      30.04F
MANITOWOC      NOT AVBL
SHEBOYGAN      CLEAR     34  30  85 NE3       30.03S
$$

LMZ563-521-522-541>543-241200-
LAKESHORE

STATION/POSITION TIME  TEMP    WIND        PRES    VSBY  WAVE
                       AIR SEA DIR/SP/G                  HT/PER
                 (UTC) (F)     (DEG/KT/KT) (MB)    (MI)  (FT/S)
SHEBOYGAN LKSHOR 1000   39      20/ 10/ 11 1017.3F
KEWAUNEE LKSHORE 1030   38      60/  5/  9 1016.5F
NORTHPORT PIER   1040   36      80/ 13/ 16 1017.9F
N MID LAKE BUOY  0950   36 37   90/ 14/ 17 1019.3F         3/ 4
CHAMBERS ISLAND  1040   36      40/  9/ 12 1017.3F
MENOMINEE LKSHOR 1030   36      40/ 12/ 14 1016.8F
$$




USA.gov is the U.S. government's official web portal to all federal, state and local government web resources and services.